TimeMST,TemperatureF,Dew PointF,Humidity,Sea Level PressureIn,VisibilityMPH,Wind Direction,Wind SpeedMPH,Gust SpeedMPH,PrecipitationIn,Events,Conditions,WindDirDegrees,DateUTC
12:15 AM,87.8,62.6,43,29.86,10.0,Calm,Calm,-,N/A,,Clear,0,2013-09-02 07:15:00
12:35 AM,87.8,62.6,43,29.86,10.0,WSW,3.5,-,N/A,,Clear,250,2013-09-02 07:35:00
12:55 AM,84.2,62.6,48,29.86,10.0,Calm,Calm,-,N/A,,Clear,0,2013-09-02 07:55:00
1:15 AM,84.2,62.6,48,29.87,10.0,WSW,6.9,-,N/A,,Clear,240,2013-09-02 08:15:00
1:35 AM,84.2,62.6,48,29.86,10.0,WSW,3.5,-,N/A,,Clear,240,2013-09-02 08:35:00
1:55 AM,84.2,62.6,48,29.86,10.0,Calm,Calm,-,N/A,,Clear,0,2013-09-02 08:55:00
2:15 AM,84.2,62.6,48,29.86,10.0,Calm,Calm,-,N/A,,Clear,0,2013-09-02 09:15:00
2:35 AM,84.2,62.6,48,29.86,10.0,Calm,Calm,-,N/A,,Clear,0,2013-09-02 09:35:00
2:55 AM,84.2,62.6,48,29.85,10.0,Calm,Calm,-,N/A,,Clear,0,2013-09-02 09:55:00
3:15 AM,82.4,62.6,51,29.85,10.0,Calm,Calm,-,N/A,,Clear,0,2013-09-02 10:15:00
3:35 AM,82.4,62.6,51,29.85,10.0,Calm,Calm,-,N/A,,Clear,0,2013-09-02 10:35:00
3:55 AM,82.4,62.6,51,29.85,10.0,WSW,3.5,-,N/A,,Clear,240,2013-09-02 10:55:00
4:15 AM,80.6,62.6,54,29.86,10.0,Calm,Calm,-,N/A,,Clear,0,2013-09-02 11:15:00
4:35 AM,80.6,62.6,54,29.87,10.0,Calm,Calm,-,N/A,,Clear,0,2013-09-02 11:35:00
4:55 AM,80.6,62.6,54,29.87,10.0,Calm,Calm,-,N/A,,Clear,0,2013-09-02 11:55:00
5:15 AM,80.6,62.6,54,29.87,10.0,Calm,Calm,-,N/A,,Clear,0,2013-09-02 12:15:00
5:35 AM,80.6,62.6,54,29.87,10.0,Calm,Calm,-,N/A,,Clear,0,2013-09-02 12:35:00
5:55 AM,80.6,62.6,54,29.88,10.0,Calm,Calm,-,N/A,,Clear,0,2013-09-02 12:55:00
6:15 AM,78.8,62.6,57,29.88,10.0,Calm,Calm,-,N/A,,Clear,0,2013-09-02 13:15:00
6:35 AM,80.6,62.6,54,29.89,10.0,Calm,Calm,-,N/A,,Clear,0,2013-09-02 13:35:00
6:55 AM,82.4,64.4,54,29.91,10.0,SSE,4.6,-,N/A,,Clear,160,2013-09-02 13:55:00
7:15 AM,82.4,64.4,54,29.91,10.0,SSE,4.6,-,N/A,,Clear,150,2013-09-02 14:15:00
7:35 AM,84.2,64.4,51,29.92,10.0,SSE,6.9,-,N/A,,Clear,160,2013-09-02 14:35:00
7:55 AM,84.2,64.4,51,29.94,10.0,SSE,9.2,-,N/A,,Partly Cloudy,150,2013-09-02 14:55:00
8:15 AM,87.8,64.4,46,29.96,10.0,SSE,18.4,23.0,N/A,,Partly Cloudy,150,2013-09-02 15:15:00
8:35 AM,86.0,62.6,45,29.96,9.0,South,13.8,-,N/A,,Clear,170,2013-09-02 15:35:00
8:55 AM,87.8,62.6,43,29.96,10.0,SSE,12.7,-,N/A,,Clear,150,2013-09-02 15:55:00
9:15 AM,87.8,62.6,43,29.96,10.0,South,19.6,23.0,N/A,,Clear,170,2013-09-02 16:15:00
9:35 AM,87.8,60.8,40,29.96,10.0,South,16.1,26.5,N/A,,Clear,170,2013-09-02 16:35:00
9:55 AM,87.8,62.6,43,29.96,10.0,SSW,13.8,20.7,N/A,,Clear,200,2013-09-02 16:55:00
10:15 AM,87.8,64.4,46,29.96,10.0,SSW,11.5,-,N/A,,Clear,200,2013-09-02 17:15:00
10:35 AM,87.8,64.4,46,29.95,10.0,SSW,6.9,-,N/A,,Clear,210,2013-09-02 17:35:00
10:55 AM,87.8,64.4,46,29.95,10.0,SSW,5.8,-,N/A,,Clear,210,2013-09-02 17:55:00
11:15 AM,89.6,62.6,40,29.94,10.0,SW,6.9,-,N/A,,Clear,230,2013-09-02 18:15:00
11:35 AM,89.6,60.8,38,29.93,10.0,SSW,6.9,-,N/A,,Clear,200,2013-09-02 18:35:00
11:55 AM,93.2,62.6,36,29.93,10.0,SW,4.6,-,N/A,,Clear,220,2013-09-02 18:55:00
12:15 PM,93.2,60.8,34,29.91,10.0,South,3.5,-,N/A,,Partly Cloudy,190,2013-09-02 19:15:00
12:35 PM,95.0,60.8,32,29.91,10.0,SW,3.5,-,N/A,Thunderstorm,Partly Cloudy,220,2013-09-02 19:35:00
12:55 PM,95.0,60.8,32,29.91,10.0,SSW,13.8,20.7,N/A,Thunderstorm,Mostly Cloudy,200,2013-09-02 19:55:00
1:15 PM,93.2,64.4,38,29.91,10.0,WSW,18.4,-,N/A,Thunderstorm,Scattered Clouds,240,2013-09-02 20:15:00
1:35 PM,91.4,64.4,41,29.90,10.0,WSW,12.7,-,N/A,Thunderstorm,Clear,240,2013-09-02 20:35:00
1:55 PM,93.2,66.2,41,29.88,10.0,West,15.0,18.4,N/A,,Clear,280,2013-09-02 20:55:00
2:15 PM,93.2,64.4,38,29.87,10.0,NW,12.7,-,N/A,,Clear,310,2013-09-02 21:15:00
2:35 PM,93.2,64.4,38,29.85,10.0,NW,12.7,-,N/A,,Clear,320,2013-09-02 21:35:00
2:55 PM,96.8,62.6,32,29.85,10.0,NNW,11.5,-,N/A,,Clear,330,2013-09-02 21:55:00
3:15 PM,96.8,62.6,32,29.84,10.0,NNW,11.5,-,N/A,,Clear,340,2013-09-02 22:15:00
3:35 PM,96.8,62.6,32,29.82,10.0,North,11.5,-,N/A,,Clear,350,2013-09-02 22:35:00
3:55 PM,98.6,62.6,30,29.82,10.0,North,12.7,-,N/A,,Clear,360,2013-09-02 22:55:00
4:15 PM,98.6,62.6,30,29.81,10.0,NW,8.1,-,N/A,,Clear,320,2013-09-02 23:15:00
4:35 PM,96.8,62.6,32,29.81,10.0,North,8.1,-,N/A,,Clear,10,2013-09-02 23:35:00
4:55 PM,98.6,60.8,29,29.80,10.0,North,9.2,-,N/A,,Clear,360,2013-09-02 23:55:00
5:15 PM,98.6,62.6,30,29.80,10.0,NNW,9.2,-,N/A,,Clear,330,2013-09-03 00:15:00
5:35 PM,98.6,62.6,30,29.80,10.0,NNW,9.2,-,N/A,,Clear,340,2013-09-03 00:35:00
5:55 PM,96.8,60.8,30,29.80,10.0,North,6.9,-,N/A,,Clear,360,2013-09-03 00:55:00
6:15 PM,96.8,60.8,30,29.80,10.0,NNW,3.5,-,N/A,,Clear,330,2013-09-03 01:15:00
6:35 PM,96.8,60.8,30,29.81,10.0,NNW,4.6,-,N/A,,Clear,340,2013-09-03 01:35:00
6:55 PM,95.0,60.8,32,29.81,10.0,NW,3.5,-,N/A,,Clear,310,2013-09-03 01:55:00
7:15 PM,93.2,60.8,34,29.82,10.0,NNW,4.6,-,N/A,,Clear,330,2013-09-03 02:15:00
7:35 PM,93.2,60.8,34,29.82,10.0,NNW,4.6,-,N/A,,Clear,330,2013-09-03 02:35:00
7:55 PM,91.4,60.8,36,29.82,10.0,NW,4.6,-,N/A,,Clear,310,2013-09-03 02:55:00
8:15 PM,91.4,62.6,38,29.83,10.0,NW,3.5,-,N/A,,Clear,310,2013-09-03 03:15:00
8:35 PM,91.4,62.6,38,29.84,10.0,SSW,3.5,-,N/A,,Clear,200,2013-09-03 03:35:00
8:55 PM,89.6,62.6,40,29.85,10.0,Calm,Calm,-,N/A,,Clear,0,2013-09-03 03:55:00
9:15 PM,87.8,62.6,43,29.86,10.0,Calm,Calm,-,N/A,,Clear,0,2013-09-03 04:15:00
9:35 PM,87.8,64.4,46,29.86,10.0,Calm,Calm,-,N/A,,Clear,0,2013-09-03 04:35:00
9:55 PM,87.8,62.6,43,29.86,10.0,West,3.5,-,N/A,,Clear,260,2013-09-03 04:55:00
10:15 PM,87.8,62.6,43,29.86,10.0,WNW,3.5,-,N/A,,Clear,300,2013-09-03 05:15:00
10:35 PM,84.2,62.6,48,29.86,10.0,NE,3.5,-,N/A,,Clear,40,2013-09-03 05:35:00
10:55 PM,84.2,62.6,48,29.86,10.0,Calm,Calm,-,N/A,,Clear,0,2013-09-03 05:55:00
11:15 PM,84.2,62.6,48,29.86,10.0,NNE,3.5,-,N/A,,Clear,30,2013-09-03 06:15:00
11:35 PM,84.2,62.6,48,29.86,10.0,NNE,4.6,-,N/A,,Clear,30,2013-09-03 06:35:00
11:55 PM,84.2,62.6,48,29.86,10.0,Calm,Calm,-,N/A,,Clear,0,2013-09-03 06:55:00